contact:dominique.lefevre@mio.osupytheas.fr, maurice.libes@osupytheas.fr, didier.mallarino@osupytheas.fr
Project:EMSO http://www.emso-fr.org/EMSO-France
Depth: 2436.0 m
Title:EMSO Ligure Ouest : Data MII capteur AQUADOPP
Date,Latitude,Longitude,X_East,Y_North,Z_Up,Amplitude_X,Amplitude_Y,Amplitude_Z,Batterie,SoundSpeed,Heading,Pitch,Roll,Pressure,TIS,Speed,Direction
, degrees North, degrees East, m.s-1, m.s-1,m.s-1, 1, 1, 1, Volt, m.s-1, degree, degree, degree, dbar, degree_C, m.s-1, degree
2019-09-02T00:00:00,42.805,6.029,-0.013,0.01,-0.02,101.0,106.0,99.0,13.4,1505.4,325.1,-0.7,1.8,2470.077,13.34,0.016,307.6
2019-09-02T00:09:05,42.805,6.029,0.0,0.028,-0.039,101.0,108.0,99.0,13.4,1505.3,328.3,-0.7,1.8,2470.172,13.31,0.028,0.0
2019-09-02T00:12:06,42.805,6.029,0.001,0.006,-0.023,100.0,107.0,99.0,13.3,1505.3,328.4,-0.7,1.8,2470.152,13.32,0.006,9.5
2019-09-02T00:15:07,42.805,6.029,-0.021,0.006,-0.045,100.0,109.0,97.0,13.4,1505.3,326.2,-0.8,1.9,2470.159,13.33,0.021,285.9
2019-09-02T00:18:08,42.805,6.029,0.001,0.024,-0.03,100.0,109.0,98.0,13.4,1505.3,326.7,-0.8,1.8,2470.116,13.33,0.024,2.4
2019-09-02T00:21:09,42.805,6.029,-0.016,0.017,-0.035,100.0,107.0,98.0,13.4,1505.3,325.2,-0.7,1.9,2470.157,13.33,0.023,316.7
2019-09-02T00:24:10,42.805,6.029,-0.003,0.029,-0.023,101.0,109.0,98.0,13.3,1505.4,324.2,-0.8,1.8,2470.128,13.34,0.029,354.1
2019-09-02T00:27:11,42.805,6.029,-0.007,0.019,-0.061,99.0,107.0,97.0,13.4,1505.4,326.3,-0.7,1.8,2470.092,13.34,0.02,339.8
2019-09-02T00:30:12,42.805,6.029,-0.02,0.016,-0.023,100.0,111.0,97.0,13.4,1505.4,326.0,-0.7,1.8,2470.145,13.34,0.025,308.7
2019-09-02T00:33:13,42.805,6.029,0.004,0.019,-0.085,100.0,109.0,97.0,13.4,1505.4,327.6,-0.7,1.8,2470.104,13.34,0.019,11.9
2019-09-02T00:36:14,42.805,6.029,-0.022,0.029,-0.075,100.0,109.0,97.0,13.4,1505.4,324.3,-0.7,1.8,2470.145,13.34,0.036,322.8
2019-09-02T00:39:15,42.805,6.029,-0.002,0.011,-0.028,101.0,108.0,98.0,13.4,1505.4,325.3,-0.7,1.8,2470.08,13.34,0.011,349.7
2019-09-02T00:42:16,42.805,6.029,-0.003,0.018,-0.028,99.0,108.0,97.0,13.4,1505.4,326.9,-0.7,1.8,2470.081,13.34,0.018,350.5
2019-09-02T00:45:17,42.805,6.029,-0.006,0.012,-0.004,100.0,109.0,98.0,13.4,1505.4,324.8,-0.7,1.8,2470.065,13.35,0.013,333.4
2019-09-02T00:48:18,42.805,6.029,-0.026,0.01,-0.04,101.0,109.0,97.0,13.4,1505.4,323.9,-0.7,1.8,2470.092,13.35,0.027,291.0
2019-09-02T00:51:19,42.805,6.029,-0.032,0.002,-0.06,101.0,108.0,98.0,13.4,1505.4,328.5,-0.7,1.8,2470.068,13.35,0.032,273.6
2019-09-02T00:54:20,42.805,6.029,-0.016,0.031,-0.043,102.0,108.0,98.0,13.3,1505.4,324.5,-0.7,1.9,2470.054,13.35,0.034,332.7
2019-09-02T00:57:21,42.805,6.029,-0.026,0.015,-0.062,101.0,108.0,99.0,13.4,1505.4,326.1,-0.7,1.8,2470.053,13.35,0.03,300.0
2019-09-02T01:00:22,42.805,6.029,-0.008,0.019,-0.025,100.0,108.0,96.0,13.3,1505.4,326.9,-0.7,1.9,2470.048,13.35,0.02,337.2
2019-09-02T01:03:23,42.805,6.029,-0.005,0.028,-0.025,102.0,108.0,98.0,13.4,1505.4,323.2,-0.8,1.8,2470.065,13.35,0.028,349.9
2019-09-02T01:06:24,42.805,6.029,-0.016,0.005,-0.027,100.0,108.0,98.0,13.4,1505.4,328.5,-0.7,1.9,2470.056,13.34,0.016,287.4
2019-09-02T01:09:25,42.805,6.029,-0.008,0.01,-0.027,100.0,108.0,98.0,13.4,1505.4,324.2,-0.7,1.8,2470.062,13.34,0.012,321.3
2019-09-02T01:12:26,42.805,6.029,-0.025,0.0,-0.078,102.0,110.0,96.0,13.3,1505.4,325.8,-0.7,1.8,2470.057,13.34,0.025,270.0
2019-09-02T01:15:27,42.805,6.029,-0.018,0.018,-0.034,102.0,108.0,97.0,13.4,1505.4,323.0,-0.7,1.8,2470.032,13.34,0.025,315.0
2019-09-02T01:18:28,42.805,6.029,-0.003,0.029,-0.014,100.0,108.0,99.0,13.4,1505.4,327.4,-0.7,1.8,2470.061,13.34,0.029,354.1
2019-09-02T01:21:29,42.805,6.029,0.004,0.023,-0.029,99.0,109.0,99.0,13.3,1505.4,324.4,-0.7,1.8,2470.006,13.34,0.023,9.9
2019-09-02T01:24:30,42.805,6.029,-0.024,0.001,-0.052,102.0,109.0,98.0,13.4,1505.4,326.6,-0.7,1.8,2470.013,13.34,0.024,272.4
2019-09-02T01:27:31,42.805,6.029,0.011,0.021,0.001,101.0,110.0,97.0,13.4,1505.4,322.8,-0.7,1.8,2470.036,13.34,0.023,27.6
2019-09-02T01:30:32,42.805,6.029,-0.007,0.012,-0.016,101.0,109.0,97.0,13.4,1505.4,328.2,-0.7,1.8,2470.022,13.34,0.013,329.7
2019-09-02T01:33:33,42.805,6.029,-0.02,0.016,-0.046,101.0,108.0,98.0,13.4,1505.4,326.5,-0.7,1.8,2470.042,13.34,0.025,308.7
2019-09-02T01:36:34,42.805,6.029,0.012,0.009,-0.003,99.0,109.0,96.0,13.3,1505.4,327.7,-0.7,1.8,2470.047,13.34,0.015,53.1
2019-09-02T01:39:35,42.805,6.029,0.003,0.016,-0.007,101.0,109.0,97.0,13.3,1505.4,326.4,-0.7,1.9,2470.028,13.34,0.016,10.6
2019-09-02T01:42:36,42.805,6.029,0.005,0.024,-0.011,100.0,108.0,98.0,13.4,1505.4,327.7,-0.7,1.8,2470.019,13.34,0.024,11.8
2019-09-02T01:45:37,42.805,6.029,-0.017,0.021,-0.038,99.0,108.0,98.0,13.4,1505.4,326.8,-0.7,1.8,2470.015,13.34,0.027,321.0
2019-09-02T01:48:38,42.805,6.029,0.003,0.011,-0.042,101.0,107.0,98.0,13.3,1505.4,328.5,-0.7,1.8,2470.003,13.34,0.011,15.3
2019-09-02T01:51:39,42.805,6.029,-0.021,0.012,-0.044,100.0,108.0,97.0,13.4,1505.4,324.5,-0.7,1.9,2470.039,13.34,0.024,299.7
2019-09-02T01:54:40,42.805,6.029,0.018,0.011,0.005,101.0,108.0,97.0,13.3,1505.4,324.4,-0.7,1.9,2470.009,13.34,0.021,58.6
2019-09-02T01:57:41,42.805,6.029,-0.011,0.02,-0.028,100.0,108.0,97.0,13.4,1505.4,324.4,-0.7,1.8,2470.016,13.34,0.022,331.2
2019-09-02T02:00:42,42.805,6.029,0.01,0.018,-0.029,100.0,108.0,97.0,13.4,1505.4,325.8,-0.7,1.8,2470.024,13.34,0.02,29.1
2019-09-02T02:03:43,42.805,6.029,-0.002,0.024,0.003,99.0,107.0,98.0,13.3,1505.4,325.2,-0.7,1.9,2470.008,13.34,0.024,355.2
2019-09-02T02:06:44,42.805,6.029,0.004,-0.002,-0.041,101.0,108.0,97.0,13.4,1505.4,328.0,-0.7,1.8,2470.02,13.34,0.004,116.6
2019-09-02T02:09:45,42.805,6.029,0.02,0.017,-0.003,100.0,109.0,97.0,13.3,1505.4,324.1,-0.7,1.8,2470.01,13.34,0.026,49.6
2019-09-02T02:12:46,42.805,6.029,0.007,0.039,-0.034,100.0,108.0,96.0,13.4,1505.4,323.4,-0.7,1.8,2469.988,13.34,0.039,10.2
2019-09-02T02:15:47,42.805,6.029,-0.006,0.003,-0.028,101.0,108.0,98.0,13.4,1505.4,328.2,-0.7,1.8,2469.981,13.34,0.006,296.6
2019-09-02T02:18:48,42.805,6.029,0.008,0.019,0.02,101.0,107.0,97.0,13.4,1505.4,325.5,-0.7,1.8,2470.019,13.34,0.02,22.8
2019-09-02T02:21:49,42.805,6.029,0.003,0.026,0.004,101.0,109.0,98.0,13.4,1505.4,327.1,-0.7,1.8,2469.939,13.34,0.026,6.6
2019-09-02T02:24:50,42.805,6.029,0.0,0.0,-0.026,98.0,109.0,97.0,13.4,1505.4,323.9,-0.7,1.8,2469.975,13.34,0.0,0.0
2019-09-02T02:27:51,42.805,6.029,-0.015,0.014,-0.02,101.0,108.0,97.0,13.3,1505.4,327.1,-0.7,1.8,2469.979,13.34,0.02,313.0
2019-09-02T02:30:52,42.805,6.029,0.018,0.031,0.0,101.0,108.0,98.0,13.4,1505.4,325.9,-0.7,1.9,2469.94,13.34,0.035,30.1
2019-09-02T02:33:53,42.805,6.029,0.018,0.012,0.007,101.0,108.0,98.0,13.4,1505.4,327.7,-0.7,1.8,2469.957,13.34,0.021,56.3
2019-09-02T02:36:54,42.805,6.029,-0.005,0.017,-0.015,99.0,108.0,98.0,13.4,1505.4,323.2,-0.7,1.8,2469.967,13.34,0.017,343.6
2019-09-02T02:39:55,42.805,6.029,0.002,0.005,-0.01,100.0,107.0,98.0,13.4,1505.4,325.0,-0.7,1.8,2469.952,13.34,0.005,21.8
2019-09-02T02:42:56,42.805,6.029,-0.008,0.01,-0.05,100.0,108.0,98.0,13.4,1505.4,324.4,-0.7,1.8,2469.982,13.34,0.012,321.3
2019-09-02T02:45:57,42.805,6.029,-0.012,0.001,-0.04,101.0,109.0,97.0,13.4,1505.4,327.8,-0.7,1.8,2469.979,13.34,0.012,274.8
2019-09-02T02:48:58,42.805,6.029,-0.004,0.011,0.0,100.0,107.0,98.0,13.4,1505.4,326.6,-0.7,1.9,2469.963,13.34,0.011,340.0
2019-09-02T02:51:59,42.805,6.029,0.0,0.016,-0.019,100.0,110.0,97.0,13.4,1505.4,325.0,-0.7,1.8,2469.968,13.34,0.016,0.0
2019-09-02T02:55:00,42.805,6.029,-0.044,0.002,-0.031,100.0,107.0,97.0,13.4,1505.4,324.8,-0.7,1.8,2469.948,13.34,0.044,272.6
2019-09-02T02:58:01,42.805,6.029,-0.007,0.032,0.0,101.0,108.0,99.0,13.4,1505.4,323.8,-0.7,1.9,2469.967,13.34,0.032,347.7
2019-09-02T03:01:02,42.805,6.029,0.001,0.007,-0.017,100.0,109.0,98.0,13.4,1505.4,328.2,-0.7,1.9,2469.959,13.34,0.007,8.1
2019-09-02T03:04:03,42.805,6.029,-0.014,0.007,-0.011,100.0,109.0,98.0,13.4,1505.4,325.1,-0.7,1.9,2469.951,13.34,0.015,296.6
2019-09-02T03:07:04,42.805,6.029,0.001,0.021,-0.03,100.0,109.0,98.0,13.4,1505.4,323.8,-0.7,1.8,2469.922,13.34,0.021,2.7
2019-09-02T03:10:05,42.805,6.029,0.022,0.01,-0.047,100.0,109.0,99.0,13.4,1505.4,327.5,-0.7,1.9,2469.947,13.34,0.024,65.6
2019-09-02T03:13:06,42.805,6.029,-0.004,0.039,-0.02,100.0,108.0,97.0,13.4,1505.4,326.2,-0.7,1.8,2469.945,13.34,0.039,354.1
2019-09-02T03:16:07,42.805,6.029,-0.002,0.001,0.0,100.0,109.0,97.0,13.4,1505.4,325.7,-0.7,1.8,2469.94,13.34,0.002,296.6
2019-09-02T03:19:08,42.805,6.029,-0.014,0.015,-0.035,100.0,109.0,98.0,13.4,1505.4,325.2,-0.7,1.9,2469.954,13.34,0.02,317.0
2019-09-02T03:22:09,42.805,6.029,0.0,0.022,-0.014,100.0,108.0,98.0,13.4,1505.4,326.9,-0.7,1.8,2469.942,13.34,0.022,0.0
2019-09-02T03:25:10,42.805,6.029,0.025,0.03,0.001,100.0,108.0,98.0,13.4,1505.3,323.1,-0.7,1.8,2469.983,13.33,0.039,39.8
2019-09-02T03:28:11,42.805,6.029,0.008,0.0,0.0,101.0,109.0,97.0,13.4,1505.3,325.8,-0.7,1.8,2469.971,13.33,0.008,90.0
2019-09-02T03:31:12,42.805,6.029,-0.007,0.017,-0.001,100.0,108.0,97.0,13.4,1505.4,325.3,-0.7,1.9,2469.961,13.34,0.018,337.6
2019-09-02T03:34:13,42.805,6.029,0.014,0.005,-0.006,100.0,107.0,99.0,13.3,1505.3,325.1,-0.7,1.8,2469.948,13.33,0.014,70.4
2019-09-02T03:37:14,42.805,6.029,0.02,-0.009,0.008,101.0,107.0,97.0,13.3,1505.3,326.6,-0.7,1.8,2469.93,13.33,0.021,114.2
2019-09-02T03:40:15,42.805,6.029,0.009,0.012,-0.023,101.0,108.0,98.0,13.3,1505.3,323.0,-0.7,1.8,2469.971,13.33,0.015,36.9
2019-09-02T03:43:16,42.805,6.029,0.018,0.017,-0.008,102.0,106.0,98.0,13.3,1505.4,323.3,-0.7,1.8,2469.94,13.34,0.024,46.6
2019-09-02T03:46:17,42.805,6.029,0.02,0.017,-0.037,101.0,108.0,97.0,13.4,1505.3,326.5,-0.7,1.9,2469.93,13.33,0.026,49.6
2019-09-02T03:49:18,42.805,6.029,-0.009,0.006,-0.038,99.0,107.0,98.0,13.4,1505.4,328.2,-0.8,1.8,2469.952,13.34,0.01,303.7
2019-09-02T03:52:19,42.805,6.029,0.003,-0.008,0.014,100.0,108.0,99.0,13.4,1505.3,326.7,-0.7,1.8,2469.945,13.33,0.008,159.4
2019-09-02T03:55:20,42.805,6.029,-0.006,-0.008,-0.008,99.0,107.0,98.0,13.4,1505.4,327.9,-0.7,1.8,2469.938,13.34,0.01,216.9
2019-09-02T03:58:21,42.805,6.029,0.014,0.029,-0.003,99.0,107.0,98.0,13.3,1505.4,325.2,-0.7,1.8,2469.919,13.34,0.032,25.8
2019-09-02T04:01:22,42.805,6.029,0.005,0.005,-0.062,100.0,106.0,97.0,13.4,1505.3,325.1,-0.7,1.8,2469.886,13.33,0.007,45.0
2019-09-02T04:04:23,42.805,6.029,0.009,-0.002,-0.027,100.0,108.0,97.0,13.4,1505.3,326.6,-0.7,1.9,2469.942,13.33,0.009,102.5
2019-09-02T04:07:24,42.805,6.029,-0.003,0.016,-0.03,101.0,108.0,100.0,13.4,1505.3,323.3,-0.7,1.8,2469.923,13.33,0.016,349.4
2019-09-02T04:10:25,42.805,6.029,-0.003,0.019,-0.012,100.0,107.0,98.0,13.4,1505.3,328.3,-0.7,1.8,2469.966,13.33,0.019,351.0
2019-09-02T04:13:26,42.805,6.029,-0.014,0.005,-0.02,100.0,107.0,97.0,13.3,1505.3,324.6,-0.7,1.8,2469.947,13.33,0.014,289.6
2019-09-02T04:16:27,42.805,6.029,-0.008,0.038,-0.013,100.0,106.0,97.0,13.4,1505.3,324.2,-0.7,1.8,2469.94,13.33,0.038,348.1
2019-09-02T04:19:28,42.805,6.029,0.02,0.013,-0.001,100.0,109.0,98.0,13.4,1505.3,327.3,-0.7,1.8,2469.958,13.33,0.023,57.0
2019-09-02T04:22:29,42.805,6.029,0.022,0.003,-0.061,101.0,110.0,97.0,13.4,1505.3,323.2,-0.7,1.8,2469.915,13.33,0.022,82.2
2019-09-02T04:25:30,42.805,6.029,0.007,0.002,-0.024,101.0,106.0,98.0,13.4,1505.3,327.1,-0.7,1.9,2469.941,13.33,0.007,74.1
2019-09-02T04:28:31,42.805,6.029,0.005,0.015,-0.009,100.0,110.0,97.0,13.4,1505.3,327.3,-0.7,1.8,2469.978,13.33,0.015,18.4
2019-09-02T04:31:32,42.805,6.029,0.019,-0.001,0.009,102.0,108.0,98.0,13.3,1505.3,327.9,-0.7,1.8,2469.947,13.33,0.019,93.0
2019-09-02T04:34:33,42.805,6.029,-0.002,0.016,-0.031,100.0,107.0,98.0,13.4,1505.3,326.7,-0.7,1.8,2469.938,13.33,0.016,352.9
2019-09-02T04:37:34,42.805,6.029,0.0,0.016,-0.035,100.0,108.0,98.0,13.4,1505.4,326.3,-0.7,1.8,2469.921,13.34,0.016,0.0
2019-09-02T04:40:35,42.805,6.029,0.012,0.004,-0.017,99.0,108.0,98.0,13.4,1505.3,327.2,-0.7,1.8,2469.996,13.33,0.012,71.6
2019-09-02T04:43:36,42.805,6.029,-0.008,0.019,0.002,101.0,107.0,97.0,13.4,1505.3,325.3,-0.7,1.8,2469.945,13.33,0.02,337.2
2019-09-02T04:46:37,42.805,6.029,0.001,0.024,-0.005,100.0,107.0,97.0,13.4,1505.3,326.4,-0.7,1.8,2469.961,13.33,0.024,2.4
2019-09-02T04:49:38,42.805,6.029,-0.009,0.012,-0.007,100.0,109.0,98.0,13.4,1505.3,325.0,-0.7,1.8,2469.92,13.33,0.015,323.1
2019-09-02T04:52:39,42.805,6.029,-0.014,0.031,-0.003,99.0,106.0,99.0,13.4,1505.3,328.0,-0.7,1.9,2469.95,13.33,0.034,335.7
2019-09-02T04:55:40,42.805,6.029,0.027,0.0,-0.027,100.0,107.0,98.0,13.3,1505.3,326.0,-0.8,1.8,2469.979,13.33,0.026,90.0
2019-09-02T04:58:41,42.805,6.029,-0.002,0.0,-0.001,100.0,108.0,98.0,13.4,1505.3,328.4,-0.7,1.8,2469.974,13.33,0.002,270.0
2019-09-02T05:01:42,42.805,6.029,-0.006,0.008,-0.054,101.0,107.0,97.0,13.4,1505.3,328.0,-0.7,1.8,2469.939,13.33,0.01,323.1
2019-09-02T05:04:43,42.805,6.029,-0.001,0.014,-0.013,100.0,108.0,98.0,13.4,1505.4,328.3,-0.7,1.8,2469.976,13.34,0.014,355.9
2019-09-02T05:07:44,42.805,6.029,0.006,0.0,-0.031,101.0,108.0,98.0,13.4,1505.4,327.9,-0.7,1.8,2469.945,13.34,0.006,90.0
2019-09-02T05:10:45,42.805,6.029,0.0,0.021,-0.043,100.0,108.0,98.0,13.3,1505.4,327.8,-0.7,1.8,2469.93,13.34,0.021,0.0
2019-09-02T05:13:46,42.805,6.029,-0.004,0.006,-0.015,101.0,107.0,99.0,13.4,1505.4,326.4,-0.7,1.8,2469.95,13.34,0.007,326.3
2019-09-02T05:16:47,42.805,6.029,0.031,0.008,-0.013,101.0,106.0,98.0,13.3,1505.4,324.5,-0.7,1.9,2469.918,13.34,0.032,75.5
2019-09-02T05:19:48,42.805,6.029,-0.026,0.0,-0.056,100.0,107.0,97.0,13.4,1505.4,324.7,-0.7,1.8,2469.968,13.34,0.026,270.0
2019-09-02T05:22:49,42.805,6.029,0.004,0.004,-0.022,100.0,107.0,97.0,13.3,1505.4,327.1,-0.7,1.8,2469.995,13.34,0.005,45.0
2019-09-02T05:25:50,42.805,6.029,0.008,0.016,-0.012,100.0,108.0,99.0,13.4,1505.4,325.8,-0.8,1.8,2470.01,13.34,0.017,26.6
2019-09-02T05:28:51,42.805,6.029,0.008,0.014,-0.024,101.0,109.0,98.0,13.4,1505.4,325.1,-0.7,1.8,2469.962,13.34,0.016,29.7
2019-09-02T05:31:52,42.805,6.029,0.008,0.008,-0.027,99.0,108.0,98.0,13.4,1505.4,325.0,-0.7,1.8,2469.974,13.34,0.011,45.0
2019-09-02T05:34:53,42.805,6.029,-0.021,0.011,-0.056,102.0,106.0,97.0,13.4,1505.4,324.8,-0.7,1.8,2469.998,13.34,0.023,297.6
2019-09-02T05:37:54,42.805,6.029,-0.002,0.022,-0.037,101.0,107.0,98.0,13.4,1505.4,327.1,-0.7,1.8,2469.972,13.34,0.022,354.8
2019-09-02T05:40:55,42.805,6.029,-0.038,0.026,-0.006,101.0,106.0,98.0,13.4,1505.4,325.0,-0.7,1.8,2470.001,13.34,0.046,304.4
2019-09-02T05:43:56,42.805,6.029,0.025,0.008,-0.017,101.0,107.0,99.0,13.3,1505.4,324.6,-0.7,1.8,2469.949,13.34,0.026,72.3
2019-09-02T05:46:57,42.805,6.029,0.006,0.033,-0.016,101.0,108.0,98.0,13.4,1505.4,327.0,-0.7,1.9,2470.013,13.34,0.033,10.3
2019-09-02T05:49:58,42.805,6.029,0.01,0.009,-0.028,100.0,108.0,97.0,13.4,1505.4,324.0,-0.7,1.8,2469.998,13.34,0.013,48.0
2019-09-02T05:52:59,42.805,6.029,-0.017,0.003,-0.032,101.0,107.0,98.0,13.4,1505.4,327.1,-0.7,1.8,2470.007,13.34,0.017,280.0
2019-09-02T05:56:00,42.805,6.029,0.01,0.025,0.004,101.0,107.0,98.0,13.4,1505.4,326.9,-0.7,1.8,2470.001,13.34,0.026,21.8
2019-09-02T05:59:01,42.805,6.029,0.004,0.019,-0.021,100.0,108.0,99.0,13.4,1505.3,324.3,-0.7,1.8,2470.014,13.33,0.019,11.9
2019-09-02T06:02:02,42.805,6.029,0.016,0.005,-0.035,100.0,106.0,98.0,13.4,1505.4,327.3,-0.7,1.8,2470.015,13.34,0.016,72.6
2019-09-02T06:05:03,42.805,6.029,0.007,0.011,-0.053,101.0,107.0,97.0,13.4,1505.4,326.8,-0.7,1.8,2470.037,13.34,0.013,32.5
2019-09-02T06:08:04,42.805,6.029,0.015,-0.007,-0.033,100.0,108.0,99.0,13.4,1505.4,327.8,-0.7,1.8,2470.026,13.34,0.016,115.0
2019-09-02T06:11:05,42.805,6.029,0.009,0.0,-0.013,100.0,109.0,97.0,13.4,1505.4,325.6,-0.7,1.8,2470.053,13.34,0.009,90.0
2019-09-02T06:14:06,42.805,6.029,-0.021,0.013,-0.019,100.0,108.0,99.0,13.4,1505.4,326.9,-0.7,1.9,2470.064,13.34,0.024,301.8
2019-09-02T06:17:07,42.805,6.029,-0.004,-0.001,-0.024,101.0,107.0,98.0,13.4,1505.4,323.1,-0.7,1.8,2470.015,13.34,0.004,256.0
2019-09-02T06:20:08,42.805,6.029,-0.006,0.02,-0.019,100.0,108.0,100.0,13.4,1505.4,324.3,-0.7,1.8,2470.018,13.34,0.02,343.3
2019-09-02T06:23:09,42.805,6.029,0.011,-0.003,0.0,101.0,107.0,98.0,13.3,1505.4,323.5,-0.7,1.8,2470.05,13.34,0.011,105.3
2019-09-02T06:26:10,42.805,6.029,0.011,0.016,-0.006,101.0,107.0,98.0,13.3,1505.4,324.4,-0.7,1.8,2470.028,13.34,0.019,34.5
2019-09-02T06:29:11,42.805,6.029,0.002,0.002,-0.011,102.0,108.0,98.0,13.4,1505.4,324.1,-0.7,1.8,2470.055,13.34,0.002,45.0
2019-09-02T06:32:12,42.805,6.029,-0.029,0.001,-0.054,102.0,108.0,102.0,13.3,1505.4,326.5,-0.8,1.8,2470.038,13.34,0.029,272.0
2019-09-02T06:35:13,42.805,6.029,0.01,0.008,-0.026,99.0,109.0,97.0,13.4,1505.4,323.7,-0.7,1.8,2470.083,13.34,0.012,51.3
2019-09-02T06:38:14,42.805,6.029,0.0,0.018,-0.02,99.0,107.0,99.0,13.4,1505.4,324.7,-0.7,1.8,2470.08,13.34,0.018,0.0
2019-09-02T06:41:15,42.805,6.029,-0.014,-0.003,-0.055,100.0,109.0,99.0,13.4,1505.4,323.5,-0.7,1.9,2470.062,13.34,0.014,257.9
2019-09-02T06:44:16,42.805,6.029,0.002,-0.007,-0.009,100.0,108.0,99.0,13.3,1505.4,322.9,-0.7,1.9,2470.039,13.34,0.007,164.1
2019-09-02T06:47:17,42.805,6.029,-0.007,0.005,-0.009,101.0,107.0,97.0,13.3,1505.4,325.6,-0.7,1.8,2470.079,13.34,0.008,305.5
2019-09-02T06:50:18,42.805,6.029,0.008,0.015,-0.012,100.0,107.0,99.0,13.3,1505.4,326.4,-0.7,1.8,2470.089,13.34,0.017,28.1
2019-09-02T06:53:19,42.805,6.029,0.016,0.009,-0.05,101.0,108.0,98.0,13.4,1505.4,326.3,-0.7,1.9,2470.089,13.34,0.018,60.6
2019-09-02T06:56:20,42.805,6.029,0.011,0.017,-0.04,100.0,107.0,97.0,13.3,1505.4,325.9,-0.7,1.8,2470.084,13.34,0.02,32.9
2019-09-02T06:59:21,42.805,6.029,-0.03,0.011,-0.046,102.0,110.0,98.0,13.3,1505.4,325.9,-0.7,1.9,2470.071,13.34,0.031,290.1
2019-09-02T07:02:22,42.805,6.029,0.011,0.015,-0.008,101.0,108.0,98.0,13.4,1505.4,325.0,-0.7,1.8,2470.067,13.34,0.018,36.3
2019-09-02T07:05:23,42.805,6.029,-0.027,-0.001,-0.037,101.0,107.0,97.0,13.4,1505.4,324.5,-0.7,1.8,2470.134,13.34,0.027,267.9
2019-09-02T07:08:24,42.805,6.029,0.023,0.005,-0.013,101.0,108.0,97.0,13.3,1505.4,326.0,-0.7,1.9,2470.098,13.34,0.023,77.7
2019-09-02T07:11:25,42.805,6.029,0.014,0.009,-0.008,100.0,107.0,96.0,13.3,1505.4,327.3,-0.7,1.8,2470.094,13.35,0.016,57.3
2019-09-02T07:14:26,42.805,6.029,0.01,-0.015,-0.041,99.0,109.0,98.0,13.4,1505.4,327.7,-0.7,1.8,2470.136,13.35,0.018,146.3
2019-09-02T07:17:27,42.805,6.029,0.0,0.003,-0.015,100.0,108.0,97.0,13.4,1505.4,327.8,-0.7,1.8,2470.118,13.34,0.003,0.0
2019-09-02T07:20:28,42.805,6.029,-0.023,0.013,-0.027,100.0,106.0,98.0,13.4,1505.4,324.2,-0.7,1.8,2470.09,13.34,0.026,299.5
2019-09-02T07:23:29,42.805,6.029,0.008,0.024,-0.02,100.0,109.0,96.0,13.4,1505.4,326.7,-0.7,1.8,2470.109,13.34,0.025,18.4
2019-09-02T07:26:30,42.805,6.029,0.022,0.011,0.003,101.0,107.0,97.0,13.4,1505.4,322.9,-0.7,1.8,2470.116,13.34,0.024,63.4
2019-09-02T07:29:31,42.805,6.029,0.0,-0.01,-0.013,99.0,108.0,98.0,13.4,1505.4,325.9,-0.7,1.8,2470.13,13.34,0.01,180.0
2019-09-02T07:32:32,42.805,6.029,-0.021,0.017,0.012,100.0,108.0,100.0,13.3,1505.4,327.2,-0.7,1.9,2470.102,13.34,0.027,309.0
2019-09-02T07:35:33,42.805,6.029,0.017,0.012,-0.042,101.0,106.0,98.0,13.3,1505.4,326.3,-0.7,1.8,2470.141,13.34,0.02,54.8
2019-09-02T07:38:34,42.805,6.029,0.013,0.0,-0.007,101.0,107.0,99.0,13.4,1505.4,326.6,-0.7,1.8,2470.092,13.34,0.013,90.0
2019-09-02T07:41:35,42.805,6.029,0.005,0.0,-0.023,100.0,107.0,97.0,13.3,1505.4,325.1,-0.7,1.8,2470.152,13.34,0.005,90.0
2019-09-02T07:44:36,42.805,6.029,-0.006,0.014,-0.017,101.0,109.0,96.0,13.4,1505.4,326.2,-0.7,1.8,2470.088,13.34,0.015,336.8
2019-09-02T07:47:37,42.805,6.029,0.007,0.008,-0.018,100.0,109.0,97.0,13.4,1505.4,323.7,-0.7,1.8,2470.142,13.34,0.01,41.2
2019-09-02T07:50:38,42.805,6.029,-0.029,0.003,-0.041,102.0,105.0,96.0,13.4,1505.4,323.5,-0.7,1.8,2470.111,13.35,0.029,275.9
2019-09-02T07:53:39,42.805,6.029,0.01,0.02,-0.001,101.0,107.0,98.0,13.4,1505.4,327.4,-0.7,1.8,2470.131,13.34,0.022,26.6
2019-09-02T07:56:40,42.805,6.029,-0.001,-0.002,-0.04,102.0,108.0,97.0,13.3,1505.4,326.8,-0.7,1.8,2470.135,13.35,0.002,206.6
2019-09-02T07:59:41,42.805,6.029,0.003,-0.005,-0.039,100.0,108.0,98.0,13.4,1505.4,325.1,-0.7,1.8,2470.118,13.35,0.005,149.0
2019-09-02T08:02:42,42.805,6.029,-0.011,0.027,-0.041,101.0,109.0,97.0,13.4,1505.4,324.8,-0.7,1.8,2470.157,13.35,0.029,337.8
2019-09-02T08:05:43,42.805,6.029,-0.002,-0.02,-0.042,102.0,109.0,99.0,13.4,1505.4,323.8,-0.7,1.8,2470.13,13.35,0.02,185.7
2019-09-02T08:08:44,42.805,6.029,-0.017,0.017,-0.037,101.0,109.0,97.0,13.4,1505.4,326.5,-0.7,1.8,2470.138,13.35,0.024,315.0
2019-09-02T08:11:45,42.805,6.029,0.0,-0.009,-0.035,100.0,107.0,97.0,13.4,1505.4,327.6,-0.7,1.8,2470.143,13.35,0.009,180.0
2019-09-02T08:14:46,42.805,6.029,-0.016,0.028,-0.036,101.0,107.0,98.0,13.4,1505.4,324.4,-0.7,1.8,2470.129,13.35,0.032,330.3
2019-09-02T08:17:47,42.805,6.029,-0.029,0.026,-0.044,101.0,108.0,98.0,13.4,1505.4,326.9,-0.7,1.8,2470.14,13.35,0.038,311.9
2019-09-02T08:20:48,42.805,6.029,-0.008,0.008,-0.02,100.0,107.0,98.0,13.3,1505.4,323.9,-0.7,1.8,2470.156,13.35,0.011,315.0
2019-09-02T08:23:49,42.805,6.029,0.003,0.012,-0.024,100.0,108.0,98.0,13.4,1505.4,323.3,-0.7,1.8,2470.181,13.35,0.012,14.0
2019-09-02T08:26:50,42.805,6.029,-0.033,0.042,-0.053,100.0,109.0,97.0,13.4,1505.4,324.3,-0.7,1.8,2470.148,13.35,0.053,321.8
2019-09-02T08:29:51,42.805,6.029,-0.016,0.013,-0.006,100.0,110.0,96.0,13.4,1505.4,323.8,-0.7,1.8,2470.192,13.35,0.02,309.1
2019-09-02T08:32:52,42.805,6.029,-0.014,0.007,-0.036,101.0,108.0,99.0,13.4,1505.4,323.4,-0.7,1.8,2470.116,13.35,0.015,296.6
2019-09-02T08:35:53,42.805,6.029,-0.03,0.001,-0.067,99.0,110.0,97.0,13.3,1505.4,324.0,-0.7,1.8,2470.193,13.35,0.03,271.9
2019-09-02T08:38:54,42.805,6.029,-0.015,0.018,-0.022,100.0,107.0,97.0,13.3,1505.4,324.0,-0.7,1.8,2470.147,13.35,0.023,320.2
2019-09-02T08:41:55,42.805,6.029,0.005,0.007,-0.016,103.0,109.0,97.0,13.4,1505.4,323.3,-0.7,1.8,2470.114,13.35,0.008,35.5
2019-09-02T08:44:56,42.805,6.029,-0.026,0.001,-0.026,101.0,108.0,97.0,13.3,1505.4,323.2,-0.7,1.8,2470.128,13.35,0.026,272.2
2019-09-02T08:47:57,42.805,6.029,0.006,0.011,0.014,98.0,106.0,99.0,13.3,1505.4,325.6,-0.7,1.8,2470.117,13.35,0.012,28.6
2019-09-02T08:50:58,42.805,6.029,-0.015,0.015,-0.018,101.0,109.0,98.0,13.4,1505.4,326.6,-0.7,1.9,2470.134,13.35,0.021,315.0
2019-09-02T08:53:59,42.805,6.029,-0.019,0.01,-0.067,101.0,108.0,100.0,13.3,1505.4,326.4,-0.7,1.8,2470.177,13.35,0.021,297.8
2019-09-02T08:57:00,42.805,6.029,-0.003,0.0,-0.03,101.0,108.0,97.0,13.3,1505.4,326.4,-0.7,1.8,2470.148,13.35,0.003,270.0
2019-09-02T09:00:01,42.805,6.029,0.005,0.011,-0.015,101.0,108.0,98.0,13.4,1505.4,326.8,-0.7,1.9,2470.199,13.35,0.012,24.4
2019-09-02T09:03:02,42.805,6.029,-0.013,0.012,-0.033,100.0,107.0,99.0,13.4,1505.4,326.3,-0.8,1.8,2470.156,13.35,0.017,312.7
2019-09-02T09:06:03,42.805,6.029,-0.007,0.023,-0.033,101.0,109.0,98.0,13.3,1505.4,326.4,-0.7,1.8,2470.179,13.35,0.024,343.1
2019-09-02T09:09:04,42.805,6.029,0.0,-0.002,-0.018,100.0,108.0,98.0,13.4,1505.4,325.5,-0.7,1.8,2470.161,13.35,0.002,180.0
2019-09-02T09:12:05,42.805,6.029,0.007,-0.003,-0.049,100.0,109.0,98.0,13.4,1505.4,327.0,-0.7,1.8,2470.181,13.35,0.007,113.2
2019-09-02T09:15:06,42.805,6.029,0.004,0.015,-0.017,100.0,108.0,98.0,13.4,1505.4,326.7,-0.7,1.8,2470.163,13.35,0.015,14.9
2019-09-02T09:18:07,42.805,6.029,0.022,0.006,-0.028,100.0,108.0,97.0,13.4,1505.4,326.5,-0.7,1.9,2470.173,13.35,0.022,74.7
2019-09-02T09:21:08,42.805,6.029,0.013,0.023,0.019,99.0,107.0,96.0,13.4,1505.4,326.6,-0.7,1.8,2470.164,13.35,0.026,29.5
2019-09-02T09:24:09,42.805,6.029,0.005,0.018,-0.061,101.0,107.0,98.0,13.3,1505.4,325.4,-0.7,1.9,2470.152,13.35,0.018,15.5
2019-09-02T09:27:10,42.805,6.029,-0.012,0.022,-0.035,100.0,106.0,98.0,13.4,1505.4,325.9,-0.7,1.8,2470.148,13.35,0.025,331.4
2019-09-02T09:30:11,42.805,6.029,-0.015,0.001,-0.032,102.0,107.0,98.0,13.3,1505.4,325.1,-0.8,1.8,2470.17,13.35,0.015,273.8
2019-09-02T09:33:12,42.805,6.029,-0.025,0.016,-0.032,98.0,108.0,98.0,13.4,1505.4,324.8,-0.7,1.8,2470.145,13.35,0.029,302.6
2019-09-02T09:36:13,42.805,6.029,-0.01,0.032,0.027,98.0,109.0,98.0,13.4,1505.4,326.3,-0.7,1.8,2470.182,13.35,0.033,342.6
2019-09-02T09:39:14,42.805,6.029,-0.01,0.007,-0.009,101.0,106.0,97.0,13.4,1505.4,327.6,-0.7,1.8,2470.156,13.35,0.012,305.0
2019-09-02T09:42:15,42.805,6.029,-0.009,0.005,-0.014,101.0,106.0,98.0,13.4,1505.4,326.2,-0.7,1.8,2470.176,13.35,0.01,299.1